星链-31683 (STARLINK-31683 )

导读 | 豆包AI

STARLINK-31683是美国太空探索技术公司SpaceX星链星座中的一颗卫星,于2024年4月23日发射入轨。星链计划旨在构建全球卫星互联网星座,为全球范围内用户提供高速低延迟宽带服务,该卫星的发射进一步扩充了星链星座的在轨卫星规模。

基本信息
目录编号:
59573
目录名称:
STARLINK-31683
国际标识:
2024-076K
轨道中心:
EARTH
卫星名称:
星链-31683
卫星全名:
星链-31683 (STARLINK-31683 )
卫星状态:
在轨 (已飞行738 天)
发射日期:
2024-04-23 UTC
国别 :
美国 (US)
星等 :
--
轨道信息
数据来源 国际轨道数据
星历时间: 2026-04-30T14:38:17+0800
18小时前
查看轨道信息
半长轴: 6861.179km
偏心率: 0.000115
轨道倾角: 43.002°
近地点辐角 251.383°
升交点赤经 77.537°
平近点角 108.689°
近地点: 482.252km
远地点: 483.832km
周期: 94.267分钟
每日圈数: 15.275825
详细信息
固有亮度:
5
最大亮度:
1.5
卫星平台:
Starlink v2.0 mini
覆盖范围:
全球
运营商:
太空探索技术公司
运营商所在国:
美国
制造商(研发单位):
太空探索技术公司
制造商所在国:
美国
使用方式:
暂无
卫星简介
星链(Starlink)计划是由太空探索技术公司(SpaceX)提出的一个巨型低轨卫星互联网星座项目,计划在2019年至2024年间在太空搭建由约1.2万颗卫星组成的“星链”网络,其中1584颗将部署在地球上空550千米处的近地轨道,并从2020年开始工作。该卫星仍在工作。
2D轨道图
3D轨道图
轨道高度分析图
轨道倾角分析图
轨道综合分析图
查看轨道综合分析图